When you browse on this site, cookies collect data to enhance your experience and personalize the content and advertising you see.
Visit our Privacy Policy to learn more. By continuing to use the site, you agree to this use of cookies and data.
  • En España
  • Lista de países
  • Para 7 días
  • Temperatura del agua
  • El tiempo en el mapa
  • Informadores
  • user-avatar
    Iniciar sesión

    Tiempo cada hora Praia

    Hoy, 15 Noviembre, Viernes

    Tiempo Temperatura Precipitaciones Viento Presión Humedad
    00:00 +26°C° 0 mm 3 mps 683 mmHg 14%
    01:00 +26°C° 0 mm 3 mps 682 mmHg 15%
    02:00 +25°C° 0 mm 3 mps 682 mmHg 17%
    03:00 +25°C° 0 mm 3 mps 682 mmHg 18%
    04:00 +23°C° 0 mm 4 mps 682 mmHg 19%
    05:00 +23°C° 0 mm 4 mps 683 mmHg 21%
    06:00 +23°C° 0 mm 4 mps 683 mmHg 20%
    07:00 +25°C° 0 mm 5 mps 684 mmHg 19%
    08:00 +26°C° 0 mm 5 mps 684 mmHg 18%
    09:00 +28°C° 0 mm 6 mps 685 mmHg 16%
    10:00 +30°C° 0 mm 6 mps 685 mmHg 15%
    11:00 +33°C° 0 mm 6 mps 685 mmHg 13%
    12:00 +34°C° 0 mm 6 mps 685 mmHg 12%
    13:00 +35°C° 0 mm 6 mps 684 mmHg 11%
    14:00 +35°C° 0 mm 5 mps 683 mmHg 11%
    15:00 +35°C° 0 mm 5 mps 683 mmHg 10%
    16:00 +35°C° 0 mm 5 mps 683 mmHg 10%
    17:00 +34°C° 0 mm 4 mps 682 mmHg 10%
    18:00 +33°C° 0 mm 4 mps 682 mmHg 13%
    19:00 +32°C° 0 mm 5 mps 683 mmHg 15%
    20:00 +29°C° 0 mm 5 mps 683 mmHg 18%
    21:00 +29°C° 0 mm 5 mps 683 mmHg 20%
    22:00 +28°C° 0 mm 5 mps 683 mmHg 23%
    23:00 +27°C° 0 mm 6 mps 683 mmHg 26%

    Mañana, 16 Noviembre, Sábado

    Tiempo Temperatura Precipitaciones Viento Presión Humedad
    00:00 +27°C° 0 mm 6 mps 682 mmHg 28%
    01:00 +26°C° 0 mm 5 mps 682 mmHg 30%
    02:00 +25°C° 0 mm 5 mps 682 mmHg 33%
    03:00 +25°C° 0 mm 5 mps 682 mmHg 34%
    04:00 +23°C° 0 mm 5 mps 682 mmHg 36%
    05:00 +23°C° 0 mm 5 mps 681 mmHg 38%
    06:00 +23°C° 0 mm 6 mps 682 mmHg 37%
    07:00 +23°C° 0 mm 6 mps 682 mmHg 37%
    08:00 +24°C° 0 mm 6 mps 683 mmHg 36%
    09:00 +27°C° 0 mm 7 mps 683 mmHg 31%
    10:00 +29°C° 0 mm 7 mps 684 mmHg 26%
    11:00 +32°C° 0 mm 7 mps 684 mmHg 20%
    12:00 +33°C° 0 mm 7 mps 683 mmHg 19%
    13:00 +34°C° 0 mm 7 mps 683 mmHg 17%
    14:00 +35°C° 0 mm 7 mps 682 mmHg 16%
    15:00 +35°C° 0 mm 7 mps 682 mmHg 16%
    16:00 +34°C° 0 mm 7 mps 682 mmHg 17%
    17:00 +34°C° 0 mm 7 mps 681 mmHg 17%
    18:00 +32°C° 0 mm 7 mps 681 mmHg 19%
    19:00 +30°C° 0 mm 7 mps 682 mmHg 21%
    20:00 +28°C° 0 mm 7 mps 682 mmHg 23%
    21:00 +28°C° 0 mm 7 mps 682 mmHg 23%
    22:00 +27°C° 0 mm 7 mps 682 mmHg 24%
    23:00 +26°C° 0 mm 7 mps 682 mmHg 25%

    Pasado mañana, 17 Noviembre, Domingo

    Tiempo Temperatura Precipitaciones Viento Presión Humedad
    00:00 +26°C° 0 mm 7 mps 682 mmHg 25%
    01:00 +24°C° 0 mm 6 mps 681 mmHg 26%
    02:00 +23°C° 0 mm 6 mps 681 mmHg 27%
    03:00 +23°C° 0 mm 5 mps 681 mmHg 27%
    04:00 +22°C° 0 mm 5 mps 681 mmHg 28%
    05:00 +22°C° 0 mm 4 mps 681 mmHg 29%
    06:00 +22°C° 0 mm 5 mps 681 mmHg 28%
    07:00 +22°C° 0 mm 5 mps 682 mmHg 27%
    08:00 +23°C° 0 mm 6 mps 682 mmHg 26%
    09:00 +26°C° 0 mm 6 mps 683 mmHg 22%
    10:00 +28°C° 0 mm 7 mps 683 mmHg 19%
    11:00 +30°C° 0 mm 7 mps 683 mmHg 15%
    12:00 +32°C° 0 mm 7 mps 683 mmHg 14%
    13:00 +33°C° 0 mm 6 mps 682 mmHg 12%
    14:00 +34°C° 0 mm 6 mps 682 mmHg 11%
    15:00 +34°C° 0 mm 6 mps 682 mmHg 11%
    16:00 +34°C° 0 mm 5 mps 682 mmHg 12%
    17:00 +33°C° 0 mm 5 mps 682 mmHg 12%
    18:00 +32°C° 0 mm 5 mps 682 mmHg 14%
    19:00 +29°C° 0 mm 5 mps 682 mmHg 16%
    20:00 +28°C° 0 mm 6 mps 682 mmHg 17%
    21:00 +27°C° 0 mm 6 mps 682 mmHg 18%
    22:00 +26°C° 0 mm 5 mps 682 mmHg 20%
    23:00 +25°C° 0 mm 5 mps 682 mmHg 21%

    18 Noviembre, Lunes

    Tiempo Temperatura Precipitaciones Viento Presión Humedad
    00:00 +23°C° 0 mm 5 mps 682 mmHg 21%
    01:00 +23°C° 0 mm 5 mps 682 mmHg 22%
    02:00 +22°C° 0 mm 5 mps 682 mmHg 22%
    03:00 +22°C° 0 mm 5 mps 682 mmHg 22%
    04:00 +21°C° 0 mm 5 mps 682 mmHg 22%
    05:00 +20°C° 0 mm 5 mps 682 mmHg 22%
    06:00 +21°C° 0 mm 5 mps 682 mmHg 21%
    07:00 +21°C° 0 mm 5 mps 683 mmHg 21%
    08:00 +22°C° 0 mm 5 mps 683 mmHg 20%
    09:00 +24°C° 0 mm 6 mps 684 mmHg 17%
    10:00 +27°C° 0 mm 6 mps 684 mmHg 14%
    11:00 +29°C° 0 mm 7 mps 684 mmHg 10%
    12:00 +30°C° 0 mm 7 mps 684 mmHg 9%
    13:00 +32°C° 0 mm 7 mps 683 mmHg 8%
    14:00 +34°C° 0 mm 7 mps 683 mmHg 6%
    15:00 +33°C° 0 mm 7 mps 683 mmHg 6%
    16:00 +33°C° 0 mm 7 mps 682 mmHg 6%
    17:00 +32°C° 0 mm 6 mps 682 mmHg 6%
    18:00 +30°C° 0 mm 6 mps 683 mmHg 7%
    19:00 +28°C° 0 mm 6 mps 683 mmHg 8%
    20:00 +26°C° 0 mm 5 mps 683 mmHg 9%
    21:00 +26°C° 0 mm 5 mps 683 mmHg 10%
    22:00 +25°C° 0 mm 5 mps 683 mmHg 11%
    23:00 +23°C° 0 mm 5 mps 683 mmHg 12%

    19 Noviembre, Martes

    Tiempo Temperatura Precipitaciones Viento Presión Humedad
    00:00 +22°C° 0 mm 5 mps 683 mmHg 13%
    01:00 +22°C° 0 mm 5 mps 683 mmHg 14%
    02:00 +21°C° 0 mm 5 mps 682 mmHg 14%
    03:00 +21°C° 0 mm 4 mps 682 mmHg 15%
    04:00 +21°C° 0 mm 4 mps 682 mmHg 15%
    05:00 +20°C° 0 mm 4 mps 682 mmHg 16%
    06:00 +21°C° 0 mm 5 mps 683 mmHg 16%
    07:00 +22°C° 0 mm 5 mps 683 mmHg 16%
    08:00 +22°C° 0 mm 6 mps 684 mmHg 16%
    09:00 +24°C° 0 mm 6 mps 684 mmHg 15%
    10:00 +28°C° 0 mm 7 mps 684 mmHg 14%
    11:00 +30°C° 0 mm 7 mps 685 mmHg 13%
    12:00 +32°C° 0 mm 7 mps 684 mmHg 13%
    13:00 +33°C° 0 mm 7 mps 684 mmHg 12%
    14:00 +34°C° 0 mm 7 mps 683 mmHg 12%
    15:00 +33°C° 0 mm 7 mps 683 mmHg 13%
    16:00 +33°C° 0 mm 6 mps 683 mmHg 13%
    17:00 +32°C° 0 mm 6 mps 682 mmHg 13%
    18:00 +30°C° 0 mm 6 mps 683 mmHg 14%
    19:00 +28°C° 0 mm 6 mps 683 mmHg 15%
    20:00 +27°C° 0 mm 6 mps 683 mmHg 16%
    21:00 +26°C° 0 mm 5 mps 683 mmHg 18%
    22:00 +25°C° 0 mm 5 mps 683 mmHg 19%
    23:00 +23°C° 0 mm 5 mps 683 mmHg 20%

    20 Noviembre, Miércoles

    Tiempo Temperatura Precipitaciones Viento Presión Humedad
    00:00 +23°C° 0 mm 5 mps 683 mmHg 21%
    01:00 +22°C° 0 mm 5 mps 683 mmHg 22%
    02:00 +21°C° 0 mm 4 mps 682 mmHg 23%
    03:00 +21°C° 0 mm 4 mps 682 mmHg 23%
    04:00 +21°C° 0 mm 4 mps 682 mmHg 23%
    05:00 +20°C° 0 mm 4 mps 682 mmHg 24%
    06:00 +21°C° 0 mm 4 mps 682 mmHg 23%
    07:00 +21°C° 0 mm 5 mps 683 mmHg 22%
    08:00 +22°C° 0 mm 5 mps 683 mmHg 21%
    09:00 +25°C° 0 mm 5 mps 684 mmHg 18%
    10:00 +27°C° 0 mm 6 mps 684 mmHg 15%
    11:00 +29°C° 0 mm 6 mps 684 mmHg 13%
    12:00 +30°C° 0 mm 6 mps 684 mmHg 11%
    13:00 +32°C° 0 mm 6 mps 683 mmHg 10%
    14:00 +32°C° 0 mm 6 mps 683 mmHg 9%
    15:00 +32°C° 0 mm 6 mps 683 mmHg 10%
    16:00 +30°C° 0 mm 6 mps 682 mmHg 10%
    17:00 +30°C° 0 mm 6 mps 682 mmHg 11%
    18:00 +28°C° 0 mm 6 mps 682 mmHg 13%
    19:00 +27°C° 0 mm 5 mps 682 mmHg 15%
    20:00 +25°C° 0 mm 5 mps 682 mmHg 16%
    21:00 +25°C° 0 mm 5 mps 683 mmHg 18%
    22:00 +23°C° 0 mm 5 mps 683 mmHg 19%
    23:00 +22°C° 0 mm 5 mps 683 mmHg 20%
    Mostrar más